Location: Little Chesterford
(52.0500°N, 0.1833°E)
Time: 00:06:04
(UTC+00:00)

NOSS 2-3 (C) - Visible Passes

Search period start: 19 April 2024 00:00
Search period end: 29 April 2024 00:00
Orbit: 493 x 1706 km, 63.3° (Epoch: 17 April)

Date Brightness Start Highest point End Pass type
(mag) Time Alt. Az. Time Alt. Az. Time Alt. Az.
19 Apr 5.3 00:02:53 10° NW 00:07:41 42° NNE 00:14:01 10° ESE visible
19 Apr 4.4 01:53:05 10° NW 01:58:36 66° SW 02:06:06 10° SSE visible
19 Apr 6.0 03:44:52 10° WNW 03:48:49 17° WSW 03:53:26 10° SSW visible
19 Apr 6.1 21:25:19 10° NW 21:28:44 22° N 21:32:50 10° NE visible
19 Apr 5.7 23:16:17 10° NW 23:20:42 32° NNE 23:26:24 10° E visible
20 Apr 4.4 01:06:26 10° NW 01:11:51 88° NE 01:19:18 10° SE visible
20 Apr 5.5 02:57:21 10° WNW 03:02:18 26° WSW 03:08:28 10° S visible
20 Apr 5.9 20:38:11 10° WNW 20:41:34 23° N 20:45:35 10° NE visible
20 Apr 5.9 22:29:35 10° NW 22:33:37 27° NNE 22:38:41 10° ENE visible
21 Apr 4.7 00:19:50 10° NW 00:25:02 64° NE 00:32:09 10° ESE visible
21 Apr 5.0 02:10:19 10° WNW 02:15:41 39° SW 02:19:13 25° S visible
21 Apr 5.7 19:51:00 10° WNW 19:54:26 27° NNW 19:58:33 10° NE visible
21 Apr 6.0 21:42:47 10° NW 21:46:29 23° N 21:51:01 10° ENE visible
21 Apr 5.1 23:33:14 10° NW 23:38:10 47° NE 23:44:36 11° ESE visible
22 Apr 4.6 01:23:29 10° NW 01:28:59 57° SW 01:31:46 35° S visible
22 Apr 6.2 03:15:50 10° W 03:18:56 14° WSW 03:18:56 14° WSW visible
22 Apr 6.0 20:55:49 10° NW 20:59:17 22° N 21:03:28 10° NE visible
22 Apr 5.5 22:46:37 10° NW 22:51:11 36° NNE 22:57:08 10° E visible
23 Apr 4.3 00:36:47 10° NW 00:42:14 81° SW 00:45:13 37° SE visible
23 Apr 5.7 02:27:57 10° WNW 02:32:26 22° WSW 02:32:26 22° WSW visible
23 Apr 6.0 20:08:43 10° WNW 20:12:05 22° N 20:16:06 10° NE visible
23 Apr 5.8 21:59:56 10° NW 22:04:07 29° NNE 22:09:25 10° E visible
23 Apr 4.5 23:50:08 10° NW 23:55:25 73° NE 23:59:01 30° ESE visible
24 Apr 5.2 01:40:45 10° WNW 01:45:59 33° WSW 01:46:15 33° SW visible
24 Apr 5.9 21:13:09 10° NW 21:16:58 24° NNE 21:21:41 10° ENE visible
24 Apr 4.9 23:03:31 10° NW 23:08:32 53° NE 23:13:02 20° ESE visible
25 Apr 4.8 00:53:50 10° NW 00:59:17 49° SW 01:00:16 46° SSW visible
25 Apr 6.5 02:47:10 10° W 02:47:31 10° W 02:47:31 10° W visible
25 Apr 6.0 20:26:13 10° NW 20:29:45 22° N 20:34:03 10° ENE visible
25 Apr 5.3 22:16:52 10° NW 22:21:34 39° NNE 22:27:10 12° E visible
26 Apr 4.4 00:07:03 10° NW 00:12:32 71° SW 00:14:25 48° SSE visible
26 Apr 6.1 01:58:34 10° WNW 02:01:39 18° WSW 02:01:39 18° WSW visible
26 Apr 5.6 21:30:10 10° NW 21:34:30 31° NNE 21:40:05 10° E visible
26 Apr 4.4 23:20:21 10° NW 23:25:42 83° NE 23:28:38 37° SE visible
27 Apr 5.5 01:11:08 10° WNW 01:15:53 29° WSW 01:15:53 29° WSW visible
27 Apr 5.8 20:43:24 10° NW 20:47:22 26° NNE 20:52:18 10° ENE visible
27 Apr 4.7 22:33:41 10° NW 22:38:50 60° NE 22:42:55 24° ESE visible
28 Apr 5.0 00:24:07 10° NW 00:29:30 42° SW 00:30:11 41° SW visible
28 Apr 5.9 19:56:31 10° NW 20:00:09 23° N 20:04:35 10° ENE visible
28 Apr 5.1 21:47:02 10° NW 21:51:52 44° NNE 21:57:16 14° E visible
28 Apr 4.6 23:37:15 10° NW 23:42:44 62° SW 23:44:31 47° S visible
